Regional Weather Roundup
Issued by NWS

Home | Current Version | Previous Version | Text Only | Print | Product List | Glossary On
Versions: 1 2 3 4 5 6 7 8 9 10 11 12 13 14 15 16 17 18 19 20 21 22 23 24 25 26 27 28 29 30 31 32 33 34 35 36 37 38 39 40 41 42 43 44 45 46 47 48 49 50
000
ASUS43 KDTX 220801
RWRMI
MICHIGAN HOURLY REGIONAL WEATHER ROUNDUP
NATIONAL WEATHER SERVICE DETROIT/PONTIAC MI
400 AM EDT SUN APR 22 2018

NOTE: "FAIR" INDICATES FEW OR NO CLOUDS BELOW 12,000 FEET WITH NO
SIGNIFICANT WEATHER AND/OR OBSTRUCTION TO VISIBILITY.

MIZ047>049-052>055-059>063-066>070-074>076-081>083-220900-
SOUTHEAST LOWER MICHIGAN

CITY           SKY/WX    TMP DP  RH WIND       PRES   REMARKS
ADRIAN         FAIR      33  24  69 NE6       30.37F WCI  28
ALMA           FAIR      32  31  95 CALM      30.39S
ANN ARBOR      FAIR      31  27  85 N3        30.38F
BAD AXE        FAIR      33  26  75 CALM      30.40S
CARO           FAIR      29  26  85 CALM      30.39S
DETROIT CITY   FAIR      35  25  66 CALM      30.40S
DETROIT        FAIR      37  24  59 N3        30.39F
FLINT          FAIR      34  29  82 CALM      30.39F
GROSSE ILE     FAIR      34  28  80 CALM      30.38F
HILLSDALE      FAIR      36  21  55 E3        30.35S
HOWELL         FAIR      35  27  72 CALM      30.38F

CITY           SKY/WX    TMP DP  RH WIND       PRES   REMARKS
JACKSON        FAIR      37  22  54 CALM      30.37F
LAMBERTVILLE   FAIR      36  30  80 CALM      30.38S
LANSING        FAIR      36  28  73 N3        30.39F
LAPEER         FAIR      31  30  96 CALM      30.40S
MASON          FAIR      37  20  50 CALM      30.38F
MONROE         FAIR      34  27  75 CALM      30.37F
MT. CLEMENS    FAIR      32  32  99 CALM        N/A
PONTIAC        FAIR      32  24  72 CALM      30.38S
PORT HOPE        N/A     33  25  72 CALM      30.38S
PORT HURON     FAIR      30  27  86 CALM      30.41S
TRI CITIES     FAIR      40  28  62 CALM      30.40R
MIDLAND        FAIR      31  29  94 CALM      30.39S
TROY           FAIR      37  24  60 CALM      30.41S
SAGINAW HB     FAIR      36  28  75 SE3       30.39S
$$
MIZ043>046-050>051-056>058-064>065-071>073-077>080-220900-
SOUTHWEST LOWER MICHIGAN

CITY           SKY/WX    TMP DP  RH WIND       PRES   REMARKS
BATTLE CREEK   FAIR      39  27  62 CALM      30.37F
BENTON HARBOR  CLOUDY    41  31  67 CALM      30.36S
BIG RAPIDS     FAIR      30  22  70 CALM      30.37S
COLDWATER      CLOUDY    45  20  37 CALM      30.36S
FREMONT        FAIR      31  24  73 CALM      30.37S
HOLLAND        FAIR      35  25  66 CALM      30.37F
GRAND RAPIDS   FAIR      36  25  64 NE3       30.36F
IONIA          FAIR      37  27  65 CALM      30.37F
KALAMAZOO      CLOUDY    43  31  62 E3        30.36F
LUDINGTON      FAIR      26  23  89 CALM      30.37F
MARSHALL       FAIR      33  25  72 CALM      30.36F
MOUNT PLEASANT FAIR      35  32  91 CALM      30.38S
MUSKEGON       FAIR      32  22  66 CALM      30.37F
SOUTH HAVEN    CLOUDY    42  26  54 CALM      30.36S
$$
MIZ016>042-220900-
NORTHERN LOWER MICHIGAN

CITY           SKY/WX    TMP DP  RH WIND       PRES   REMARKS
ALPENA         FAIR      26  23  88 CALM      30.40S
BEAVER ISLAND  FAIR      29  24  81 CALM      30.40S
BELLAIRE       FAIR      27  25  92 CALM      30.40F
CADILLAC       FAIR      26  20  79 CALM      30.36S
CHARLEVOIX     FAIR      30  24  78 CALM      30.42S
FRANKFORT      FAIR      28  23  81 CALM      30.39S
GAYLORD        FAIR      26  21  81 CALM      30.38S
GRAYLING       FAIR      23  19  83 CALM      30.38S
HARBOR SPRINGS FAIR      30  21  69 NE3       30.40R
HOUGHTON LAKE  FAIR      28  24  85 CALM      30.38S
MANISTEE       FAIR      26  22  84 CALM      30.38F
OSCODA         FAIR      26  20  76 CALM      30.40S
PELLSTON       FAIR      26  21  81 CALM      30.40S
ROGERS CITY    FAIR      28  25  87 CALM      30.41S
TRAVERSE CITY  FAIR      30  23  75 CALM      30.38F
$$
MIZ007>008-015-220900-
EASTERN UPPER MICHIGAN

CITY           SKY/WX    TMP DP  RH WIND       PRES   REMARKS
KINROSS        FAIR      30  21  69 CALM      30.39S
MACKINAC ISLAN FAIR      34  18  51 SW8       30.39S WCI  28
NEWBERRY       FAIR      27  26  96 SW3       30.37S
S. S. MARIE    FAIR      32  21  64 CALM      30.38S
MUNISING         N/A     27  22  81 S3        30.37S
$$
MIZ004>006-011>014-085-220900-
CENTRAL UPPER MICHIGAN

CITY           SKY/WX    TMP DP  RH WIND       PRES   REMARKS
MANISTIQUE     FAIR      25  24  94 CALM      30.37F
ESCANABA       FAIR      25  24  96 CALM      30.37S
MENOMINEE      FAIR      31  25  78 CALM      30.38R
SAWYER-GWINN   FAIR      26  18  73 N3        30.35S
$$
MIZ001>003-009>011-084-220900-
WESTERN UPPER MICHIGAN

CITY           SKY/WX    TMP DP  RH WIND       PRES   REMARKS
IRON MOUNTAIN  FAIR      28  21  75 CALM      30.33F
HOUGHTON       FAIR      31  13  47 E5        30.34S WCI  26
COPPER HARBOR    N/A     38  16  40 SW7       30.35R WCI  33
IRONWOOD       FAIR      27  23  85 CALM      30.34F
$$

ABBREVIATIONS USED IN REMARKS
   TC - TEMPERATURE IN CELSIUS
  WCI - WIND CHILL INDEX
   HX - HEAT INDEX
  VSB - VISIBILITY





USA.gov is the U.S. government's official web portal to all federal, state and local government web resources and services.